DW8306 Weather Reports


Display with metric or nautical units.
time (UTC)temp
F
wind
direction
speed
MPH
gust
MPH
rain 1hr
in
rain 24hr
in
rain mn
in
humidity
%
barometer
mb
20260506204512 67 293 4.0 10.0 0.00 0.00 0.00 78 1010.7
20260506203011 68 317 4.0 10.0 0.00 0.00 0.00 78 1010.1
20260506201618 69 252 4.0 14.0 0.00 0.00 0.00 77 1009.8
20260506200010 70 359 6.0 10.0 0.00 0.00 0.00 78 1009.7
20260506194506 70 354 4.0 11.0 0.00 0.00 0.00 79 1009.8
20260506193111 71 347 4.0 11.0 0.00 0.00 0.00 78 1010.2
20260506191510 72 344 4.0 9.0 0.00 0.00 0.00 80 1010.3
20260506190011 70 77 4.0 9.0 0.00 0.00 0.00 83 1010.3
20260506184507 70 16 3.0 6.0 0.00 0.00 0.00 83 1010.5
20260506183114 68 336 2.0 10.0 0.00 0.00 0.00 85 1011.2
20260506181536 68 81 3.0 10.0 0.00 0.00 0.00 86 1011.5
20260506180105 71 359 5.0 13.0 0.00 0.00 0.00 82 1011.9
20260506174516 73 13 3.0 8.0 0.00 0.00 0.00 82 1011.6
20260506173005 73 319 2.0 9.0 0.00 0.00 0.00 82 1012.1
20260506171505 72 333 3.0 8.0 0.00 0.00 0.00 84 1012.2
20260506164627 73 317 3.0 8.0 0.00 0.00 0.00 84 1011.7
20260506163014 75 316 2.0 9.0 0.00 0.00 0.00 83 1011.1
20260506161508 75 4 0.0 5.0 0.00 0.00 0.00 83 1011.1
20260506160134 75 66 0.0 5.0 0.00 0.00 0.00 83 1010.6
20260506154514 76 4 1.0 7.0 0.00 0.00 0.00 80 1010.8
20260506153012 80 264 0.0 1.0 0.00 0.00 0.00 81 1010.4
20260506151609 80 195 0.0 0.0 0.00 0.00 0.00 83 1010.3
20260506150004 79 127 0.0 1.0 0.00 0.00 0.00 84 1010.0
20260506144612 78 45 0.0 0.0 0.00 0.00 0.00 85 1010.0
20260506143105 77 18 0.0 0.0 0.00 0.00 0.00 86 1010.1
20260506141605 77 349 0.0 0.0 0.00 0.00 0.00 86 1010.0
20260506140013 76 323 0.0 0.0 0.00 0.00 0.00 87 1010.0
20260506134612 76 166 0.0 0.0 0.00 0.00 0.00 89 1009.8
20260506133116 75 176 0.0 0.0 0.00 0.00 0.00 90 1009.7
20260506131519 75 179 0.0 0.0 0.00 0.00 0.00 91 1009.6
20260506130014 74 179 0.0 0.0 0.00 0.00 0.00 91 1009.6
20260506124623 74 179 0.0 0.0 0.00 0.00 0.00 91 1009.5
20260506123012 74 179 0.0 0.0 0.00 0.00 0.00 91 1009.4
20260506121512 74 179 0.0 0.0 0.00 0.00 0.00 91 1009.1
20260506120116 73 179 0.0 0.0 0.00 0.00 0.00 91 1009.0
20260506114518 73 179 0.0 0.0 0.00 0.00 0.00 91 1009.0
20260506113011 73 179 0.0 0.0 0.00 0.00 0.00 91 1008.7
20260506111515 73 179 0.0 0.0 0.00 0.00 0.00 91 1008.4
20260506110020 73 179 0.0 0.0 0.00 0.00 0.00 91 1008.3
20260506104531 73 179 0.0 0.0 0.00 0.00 0.00 91 1008.2
20260506103035 73 179 0.0 0.0 0.00 0.00 0.00 91 1008.0
20260506101508 73 179 0.0 0.0 0.00 0.00 0.00 91 1007.8
20260506100018 73 179 0.0 0.0 0.00 0.00 0.00 90 1007.9
20260506094518 73 179 0.0 0.0 0.00 0.00 0.00 90 1007.4
20260506093018 73 211 0.0 0.0 0.00 0.00 0.00 90 1007.3
20260506091516 73 211 0.0 0.0 0.00 0.00 0.00 90 1007.5
20260506090016 73 206 0.0 0.0 0.00 0.00 0.00 90 1007.6
20260506084636 74 187 0.0 0.0 0.00 0.00 0.00 89 1007.3
20260506083107 74 187 0.0 0.0 0.00 0.00 0.00 89 1007.2
20260506081518 74 220 0.0 0.0 0.00 0.00 0.00 88 1007.2
20260506073006 75 156 0.0 0.0 0.00 0.00 0.00 87 1007.0
20260506071606 75 141 0.0 0.0 0.00 0.00 0.00 87 1007.3
20260506061520 75 172 0.0 0.0 0.00 0.00 0.00 88 1007.8
20260506044607 75 160 0.0 0.0 0.00 0.00 0.00 89 1007.1
20260506043011 75 160 0.0 0.0 0.00 0.00 0.00 89 1007.1
20260506041610 75 200 0.0 0.0 0.00 0.00 0.00 88 1006.8
20260506040110 75 206 0.0 0.0 0.00 0.00 0.00 88 1007.1
20260506034515 75 204 0.0 0.0 0.00 0.00 0.00 87 1006.8
20260506033003 76 164 0.0 0.0 0.00 0.00 0.00 87 1007.0
20260506031616 76 164 0.0 0.0 0.00 0.00 0.00 87 1007.1
20260506030012 76 164 0.0 0.0 0.00 0.00 0.00 86 1007.0
20260506024516 76 164 0.0 0.0 0.00 0.00 0.00 85 1006.7
20260506023121 77 164 0.0 0.0 0.00 0.00 0.00 84 1006.4
20260506021622 77 164 0.0 0.0 0.00 0.00 0.00 83 1006.3
20260506020107 78 164 0.0 0.0 0.00 0.00 0.00 82 1006.2
20260506014615 78 164 0.0 0.0 0.00 0.00 0.00 81 1006.1
20260506013019 78 164 0.0 1.0 0.00 0.00 0.00 81 1006.0
20260506011524 79 164 0.0 1.0 0.00 0.00 0.00 80 1005.6
20260506010007 79 164 0.0 1.0 0.00 0.00 0.00 79 1005.1
20260506004513 80 164 0.0 2.0 0.00 0.00 0.00 78 1005.1
20260506003021 81 193 0.0 0.0 0.00 0.00 0.00 77 1005.1
20260506000012 81 179 0.0 2.0 0.00 0.00 0.00 75 1005.1
20260505234508 82 166 0.0 2.0 0.00 0.00 0.00 74 1005.0
20260505233113 82 162 0.0 2.0 0.00 0.00 0.00 74 1005.0
20260505231532 83 199 1.0 4.0 0.00 0.00 0.00 73 1004.8
20260505230023 84 155 0.0 2.0 0.00 0.00 0.00 72 1004.7
20260505224517 84 158 0.0 1.0 0.00 0.00 0.00 73 1004.8
20260505221508 84 180 1.0 4.0 0.00 0.00 0.00 71 1005.1
20260505220009 85 171 0.0 1.0 0.00 0.00 0.00 71 1005.2
20260505214511 84 172 0.0 1.0 0.00 0.00 0.00 73 1005.4
20260505213016 84 131 0.0 2.0 0.00 0.00 0.00 73 1005.3
20260505211607 84 185 0.0 2.0 0.00 0.00 0.00 70 1005.3
20260505210106 85 154 0.0 4.0 0.00 0.00 0.00 70 1005.5